Simultaneous Nadir Overpasses (SNOs) Predictions

Prediction of SNOs between NOAA-19 and TERRA Satellite Orbit:

Table of predicted SNOs for the next 14.0 days since TLE Epoch: 2/22/2020
Index Date (NOAA-19) Time (NOAA-19) Lat,Lon (NOAA-19) SZA (NOAA-19 ) Date (TERRA) Time (TERRA) Lat,Lon (TERRA) SZA (TERRA ) Distance(km) Time Diff (sec)
1 02/24/2020 01:26:05 79.47,-177.50 89.79 02/24/2020 01:27:11 79.40,-174.28 89.97 66.07 66
2 02/24/2020 02:17:00 -79.20, -7.79 90.31 02/24/2020 02:16:43 -79.21, -7.87 90.31 2.25 17
3 02/26/2020 07:50:17 79.22, 88.77 88.89 02/26/2020 07:50:26 79.22, 88.77 88.89 0.12 9
4 02/28/2020 13:23:42 -79.24,-174.69 91.93 02/28/2020 13:24:09 -79.25,-174.50 91.91 4.01 27
5 02/28/2020 14:14:37 79.22, -7.17 88.05 02/28/2020 14:13:36 79.20, -7.16 88.02 1.86 61
6 03/01/2020 18:56:57 79.23, -77.80 87.24 03/01/2020 18:57:50 79.26, -77.88 87.27 3.01 53
7 03/01/2020 19:48:02 -79.23, 89.44 92.78 03/01/2020 19:47:18 -79.23, 89.58 92.79 2.91 44
8 03/04/2020 00:30:23 -79.27, 18.61 93.59 03/04/2020 00:31:32 -79.25, 18.64 93.59 2.66 69
9 03/04/2020 01:21:17 79.23,-173.75 86.39 03/04/2020 01:20:58 79.23,-173.82 86.38 1.35 19




NCC Satellite Simultaneous Nadir Overpasses (SNOs) Prediction Service
